EDT,Max TemperatureF,Mean TemperatureF,Min TemperatureF,Max Dew PointF,MeanDew PointF,Min DewpointF,Max Humidity, Mean Humidity, Min Humidity, Max Sea Level PressureIn, Mean Sea Level PressureIn, Min Sea Level PressureIn, Max VisibilityMiles, Mean VisibilityMiles, Min VisibilityMiles, Max Wind SpeedMPH, Mean Wind SpeedMPH, Max Gust SpeedMPH,PrecipitationIn, CloudCover, Events, WindDirDegrees
2012-10-1,62,53,44,52,46,41,100,75,45,29.92,29.85,29.74,10,9,5,15,6,20,0.22,1,,70
2012-10-2,62,56,51,63,57,52,100,100,100,29.89,29.78,29.71,10,4,0,13,7,21,0.17,7,,36
2012-10-3,64,60,55,57,54,52,100,84,68,30.12,30.02,29.88,10,8,0,13,5,18,0.00,6,,178
2012-10-4,73,62,51,55,53,50,100,77,44,30.17,30.13,30.10,10,10,8,16,8,23,0.00,1,,188
2012-10-5,62,52,42,55,51,43,100,92,72,30.11,30.06,29.97,10,8,3,14,7,18,0.39,5,,270
2012-10-6,51,43,35,43,36,32,100,78,50,30.12,30.05,29.95,10,10,3,14,7,18,0.05,2,,280
2012-10-7,46,42,37,39,34,30,100,76,57,30.16,30.11,30.08,10,10,10,12,2,17,0.00,5,,260
2012-10-8,51,40,30,34,31,28,100,74,41,30.22,30.17,30.12,10,10,10,9,2,,0.00,1,,183
2012-10-9,59,46,33,41,36,32,100,73,38,30.14,30.05,29.92,10,9,5,16,8,23,0.00,0,,170
2012-10-10,51,42,32,45,36,28,100,73,47,30.20,30.01,29.86,10,10,3,20,9,25,0.01,4,,251
2012-10-11,57,44,32,34,31,30,100,67,36,30.26,30.19,30.11,10,10,10,16,7,24,0.00,0,,181
2012-10-12,53,46,39,39,31,23,81,60,33,30.38,30.30,30.16,10,10,10,15,6,21,0.00,1,,36
2012-10-13,68,52,37,61,40,28,88,62,45,30.34,30.17,29.98,10,10,9,17,9,24,0.00,1,,152
2012-10-14,71,64,55,63,58,54,100,81,60,29.99,29.81,29.63,10,10,2,30,15,43,0.11,4,,188
2012-10-15,55,48,42,52,45,37,100,87,67,29.94,29.83,29.72,10,10,2,24,12,30,0.00,7,,266
2012-10-16,60,46,32,43,37,32,100,73,39,29.99,29.90,29.78,10,8,1,12,3,,0.00,0,,179
2012-10-17,71,61,51,48,44,39,77,55,35,29.79,29.72,29.56,10,10,10,18,12,30,0.00,2,,159
2012-10-18,62,54,46,52,40,30,100,58,31,29.68,29.58,29.44,10,10,3,25,16,33,0.07,2,,186
2012-10-19,53,48,42,45,39,32,100,74,51,29.65,29.60,29.55,10,9,4,14,10,21,0.13,4,,179
2012-10-20,53,47,39,45,41,37,100,84,58,29.95,29.78,29.64,10,10,8,17,10,23,0.00,5,,237
2012-10-21,60,48,35,45,41,36,100,80,55,30.12,30.06,29.96,10,9,3,10,4,16,0.00,0,,161
2012-10-22,73,60,48,54,48,45,87,66,46,30.12,30.07,30.01,10,10,5,15,8,17,0.00,2,,162
2012-10-23,69,64,59,61,54,52,100,70,56,30.06,30.01,29.97,10,10,7,18,8,24,0.05,4,,195
2012-10-24,78,68,57,55,52,48,82,60,38,30.09,30.04,30.01,10,9,3,16,8,21,0.00,2,,178
2012-10-25,75,64,53,54,50,46,77,61,44,30.05,29.99,29.93,10,10,10,22,11,28,0.00,0,,167
2012-10-26,62,52,42,52,45,43,100,94,68,30.16,30.10,29.93,10,6,2,16,12,22,0.51,7,,3
2012-10-27,48,42,37,43,39,34,100,87,62,30.13,30.09,30.05,10,9,2,20,15,24,0.05,7,,7
2012-10-28,44,40,37,37,34,30,93,78,66,30.11,30.05,30.01,10,10,8,28,14,36,0.00,7,,4
2012-10-29,37,35,33,34,33,30,100,89,75,30.02,29.89,29.66,10,9,5,39,21,46,0.01,6,,339
2012-10-30,35,34,32,36,33,32,100,99,93,29.65,29.48,29.42,8,2,0,24,20,37,0.14,7,,315
2012-10-31,39,37,35,39,37,36,100,99,93,29.72,29.65,29.59,10,6,1,17,12,22,0.02,8,,281